Hourly Data Report for August 26, 2014

All times are specified in Local Standard Time (LST). Add 1 hour to adjust for Daylight Saving Time where and when it is observed.

Metadata including Station Name, Province, Latitude, Longitude, Elevation, Climate ID, WMO ID, TC ID
MONTREAL MIRABEL INTL A
QUEBEC
Latitude: 45°40'50.000" N Longitude: 74°02'19.000" W Elevation: 82.30 m
Climate ID: 7034900 WMO ID: TC ID: YMX
Hourly Data Report for August 26, 2014
Temp Definition
°C

Dew Point Temp Definition
°C

Rel Hum Definition
%

Wind Dir Definition
10's deg
Wind Spd Definition
km/h

Visibility Definition
km

Stn Press Definition
kPa

Hmdx Definition

Wind Chill Definition

Weather Definition

00:00 Legend Double Dagger 17.0 16.4 96 36 2 40.2 100.95 LegendNANA
01:00 Legend Double Dagger 17.3 15.8 91 24 3 40.2 100.94 Mainly Clear
02:00 Legend Double Dagger 15.6 15.1 97 27 4 40.2 100.94 LegendNANA
03:00 Legend Double Dagger 15.2 14.9 98 24 4 40.2 100.94 LegendNANA
04:00 Legend Double Dagger 14.7 14.4 98 27 4 40.2 100.92 Clear
05:00 Legend Double Dagger 13.6 13.3 98 29 3 40.2 100.94 LegendNANA
06:00 Legend Double Dagger 14.5 14.2 98 20 3 32.2 100.98 LegendNANA
07:00 Legend Double Dagger 17.8 16.5 92 20 9 40.2 100.95 Mainly Clear
08:00 Legend Double Dagger 20.1 16.2 78 23 10 40.2 100.93 25 LegendNANA
09:00 Legend Double Dagger 21.8 17.3 75 23 10 40.2 100.90 27 LegendNANA
10:00 Legend Double Dagger 23.5 17.8 70 22 10 40.2 100.89 29 Mainly Clear
11:00 Legend Double Dagger 24.7 17.8 65 21 21 40.2 100.81 31 LegendNANA
12:00 Legend Double Dagger 26.3 18.6 62 23 13 40.2 100.78 33 LegendNANA
13:00 Legend Double Dagger 26.1 18.1 61 20 27 40.2 100.72 32 Mainly Clear
14:00 Legend Double Dagger 27.0 18.5 59 21 21 40.2 100.65 33 LegendNANA
15:00 Legend Double Dagger 27.5 19.2 60 21 17 40.2 100.57 34 LegendNANA
16:00 Legend Double Dagger 27.4 19.4 61 21 18 40.2 100.49 34 Mainly Clear
17:00 Legend Double Dagger 26.6 19.1 63 21 20 40.2 100.47 33 LegendNANA
18:00 Legend Double Dagger 25.2 18.8 67 22 16 40.2 100.44 32 LegendNANA
19:00 Legend Double Dagger 23.7 18.5 72 21 11 40.2 100.36 30 Mainly Clear
20:00 Legend Double Dagger 23.7 18.2 71 22 11 40.2 100.34 30 LegendNANA
21:00 Legend Double Dagger 23.3 18.3 73 23 8 40.2 100.33 30 LegendNANA
22:00 Legend Double Dagger 22.4 18.4 78 22 8 40.2 100.28 29 Mainly Clear
23:00 Legend Double Dagger 22.3 18.6 79 22 10 40.2 100.24 29 LegendNANA

Notes on Data Quality.

Legend
  • E = Estimated
  • M = Missing
  • NA = Not Available
  • ‡ = Partner data that is not subject to review by the National Climate Archives